[[{"header":{"parameterUnit":"m.s-1","parameterCategory":1,"la1":30.2991,"la2":30.254,"lo1":-89.0895,"lo2":-89.0444,"dy":0.0017,"dx":0.0017,"nx":28,"ny":28,"refTime":"2025-07-22T09:00:00:Z","depth":0,"parameterNumber":2,"parameterNumberName":"U-component_of_WINDS"},"data":[0,0,0,0,0,0,0,0,0,0,0,0,0,0,0,0,0,0,0,0,0,0,0,0,0,0,0,0,0,0,0,0,0,0,0,0,0,0,0,0,0,0,0,0,0,0,0,0,0,0,0,0,0,0,0,0,0,0,1.4995,1.4996,0,1.5099,1.51,1.5101,1.5077,1.5075,1.5073,1.5071,1.5185,1.5189,1.5194,0,0,0,0,0,0,0,0,0,0,0,0,0,1.4785,1.4789,1.4995,1.4997,1.4998,1.5098,1.51,1.5101,1.5077,1.5075,1.5073,1.507,1.5183,1.5189,1.5195,0,0,0,0,0,0,0,0,0,0,0,0,0,1.4882,1.4791,1.4995,1.4998,1.4999,1.5098,1.51,1.5102,1.5078,1.5075,1.5072,1.5069,1.5181,1.5188,1.5195,1.53,0,0,1.5218,1.5221,0,0,0,0,0,0,0,0,1.4876,1.4889,1.4996,1.4998,1.4999,1.5072,1.5067,1.5168,1.5079,1.5048,1.5071,1.5068,1.515,1.516,1.5186,1.5305,1.531,1.5218,1.5223,1.5226,1.5228,0,0,0,0,0,0,0,1.487,1.4885,1.5036,1.4998,1.5,1.4997,1.5007,1.5086,1.5115,1.5051,1.5049,1.5061,1.515,1.5179,1.5188,1.5312,1.5218,1.5225,1.5229,1.5232,1.5526,1.5529,0,0,0,0,0,0,1.486,1.4879,1.5033,1.5039,1.4929,1.5003,1.5014,1.5052,1.5114,1.512,1.5064,1.506,1.5168,1.518,1.5192,1.5321,1.5226,1.5233,1.5237,1.5522,1.5527,1.553,0,0,0,0,0,0,1.4856,1.4874,1.5029,1.4959,1.4978,1.501,1.5052,1.5055,1.5084,1.5124,1.5129,1.5087,1.5166,1.5182,1.5274,1.5325,1.5236,1.5243,1.5518,1.5524,1.5528,1.5579,0,0,0,0,0,0,1.485,1.4873,1.4911,1.496,1.4982,1.5106,1.5055,1.5059,1.5095,1.5091,1.5147,1.5154,1.5165,1.5263,1.5281,1.5333,1.5248,1.5514,1.5521,1.5527,1.5573,1.5585,1.5595,0,0,0,0,0,1.4843,1.4922,1.4913,1.4932,1.503,1.5109,1.5122,1.5131,1.5099,1.514,1.5166,1.5152,1.5315,1.5272,1.5293,1.5348,1.5511,1.5519,1.5526,1.5567,1.5582,1.5595,0,0,0,0,0,0,1.4881,1.4929,1.4919,1.5016,1.5059,1.5105,1.5156,1.5146,1.5201,1.5195,1.5206,1.5219,1.5313,1.5339,1.529,1.5454,1.5409,1.5421,1.5433,1.5448,1.5459,1.5452,1.5254,0,0,0,0,0,1.49,1.4958,1.4997,1.508,1.5101,1.5125,1.5159,1.5163,1.5208,1.5227,1.5259,1.5306,1.5368,1.5409,1.5468,1.5575,1.5589,1.5624,1.5635,1.5644,1.5655,1.5717,1.5733,1.5556,1.5556,1.5555,0,0,1.4942,1.4975,1.5011,1.5088,1.5121,1.5184,1.514,1.5207,1.5255,1.5238,1.5326,1.5352,1.5405,1.5505,1.5551,1.553,1.5707,1.5654,1.5661,1.5667,1.5726,1.5743,1.5758,1.5561,1.556,1.5559,0,0,1.505,1.5079,1.5152,1.5185,1.5235,1.5251,1.5268,1.5316,1.5332,1.542,1.5409,1.5467,1.5573,1.5612,1.5646,1.5769,1.576,1.5788,1.5848,1.5908,1.5922,1.5935,1.5982,1.5998,1.5798,1.5798,1.5799,0,1.5096,1.5187,1.5191,1.526,1.5295,1.528,1.5355,1.5389,1.5457,1.5483,1.5457,1.5591,1.5626,1.5736,1.5766,1.5793,1.5816,1.5783,1.5919,1.5932,1.5944,1.5989,1.6006,1.5802,1.5801,1.5801,1.5801,0,1.5242,1.5306,1.5359,1.5422,1.5464,1.5536,1.5553,1.5595,1.5595,1.5614,1.5706,1.5746,1.5815,1.584,1.5842,1.5952,1.5938,1.5916,1.5872,1.5964,1.6007,1.6024,1.5807,1.5805,1.5804,1.5804,0,0,1.5379,1.5443,1.5463,1.5493,1.5547,1.5597,1.5669,1.5734,1.5771,1.5818,1.5881,1.5971,1.5951,1.599,1.5995,1.6047,1.6146,1.6019,1.6021,1.6044,1.6274,1.6293,1.6312,1.6139,1.6142,1.6144,1.6271,0,1.5494,1.5618,1.5625,1.5739,1.58,1.5786,1.5849,1.5891,1.5911,1.5967,1.599,1.6054,1.6021,1.6045,1.6095,1.6123,1.6193,1.6114,1.6201,1.6204,1.6191,1.6334,1.6354,1.6471,1.6287,1.629,1.6292,0,1.5645,1.5695,1.5815,1.5861,1.5887,1.5944,1.6004,1.6057,1.6105,1.6116,1.6158,1.6157,1.6234,1.6185,1.6293,1.624,1.6276,1.6295,1.63,1.6311,1.6256,1.6352,1.6508,1.6527,1.6318,1.6316,1.6314,0,1.5736,1.5834,1.5918,1.5944,1.6,1.604,1.6066,1.611,1.6149,1.6203,1.6229,1.6291,1.6327,1.6377,1.6393,1.6355,1.6502,1.6454,1.6517,1.6517,1.6551,1.6549,1.6718,1.6569,1.6569,1.6568,1.6568,0,1.5866,1.5941,1.596,1.6013,1.6097,1.6104,1.6189,1.6212,1.6252,1.6311,1.6303,1.636,1.6376,1.6437,1.645,1.654,1.6555,1.6569,1.6572,1.6571,1.657,1.6597,1.6591,1.6573,1.6572,1.6571,1.657,0,1.5983,1.5999,1.6091,1.6136,1.6149,1.6209,1.6249,1.6301,1.6319,1.6394,1.6413,1.6442,1.6513,1.6533,1.6618,1.6627,1.6734,1.6728,1.6717,1.6718,1.6781,1.6776,1.6976,1.7005,1.6834,1.6836,1.6837,0,1.6066,1.6123,1.6173,1.6211,1.6238,1.6299,1.6338,1.6348,1.639,1.6449,1.6495,1.6564,1.662,1.6734,1.6765,1.6831,1.6829,1.6894,1.6839,1.6837,1.6834,1.6832,1.6839,1.6906,1.6908,1.6909,1.691,0,1.6213,1.6218,1.6273,1.6332,1.6378,1.6425,1.6471,1.6503,1.652,1.6568,1.6638,1.6681,1.6768,1.6838,1.6905,1.6934,1.6928,1.6927,1.6946,1.6947,1.694,1.6948,1.6749,1.6923,1.6922,1.6921,1.692,1.692,1.6318,1.6369,1.6412,1.6475,1.6509,1.6552,1.6604,1.6627,1.6686,1.6755,1.6758,1.6836,1.6884,1.6973,1.7006,1.7069,1.7051,1.7077,1.7084,1.7091,1.7098,1.6927,1.7081,1.7081,1.7081,1.708,1.708,0,1.6468,1.6494,1.6551,1.6614,1.6664,1.6648,1.6698,1.6742,1.681,1.6854,1.6909,1.6992,1.706,1.7096,1.7164,1.7208,1.7207,1.7226,1.7225,1.7233,1.7109,1.7088,1.7226,1.7226,1.7226,1.7226,1.7226,1.7226,1.6551,1.6637,1.6647,1.6751,1.6778,1.6852,1.6882,1.6923,1.6959,1.705,1.7106,1.7127,1.717,1.7241,1.7304,1.7313,1.7341,1.7363,1.7371,1.7256,1.7241,1.7227,1.7207,1.7368,1.7368,1.7489,1.749,1.7491]},{"header":{"parameterUnit":"m.s-1","parameterCategory":1,"la1":30.2991,"la2":30.254,"lo1":-89.0895,"lo2":-89.0444,"dy":0.0017,"dx":0.0017,"nx":28,"ny":28,"refTime":"2025-07-22T09:00:00:Z","depth":0,"parameterNumber":3,"parameterNumberName":"V-component_of_WINDS"},"data":[0,0,0,0,0,0,0,0,0,0,0,0,0,0,0,0,0,0,0,0,0,0,0,0,0,0,0,0,0,0,0,0,0,0,0,0,0,0,0,0,0,0,0,0,0,0,0,0,0,0,0,0,0,0,0,0,0,0,-0.9493,-0.9492,0,-0.9437,-0.9436,-0.9435,-0.9432,-0.9433,-0.9434,-0.9434,-0.9372,-0.937,-0.9367,0,0,0,0,0,0,0,0,0,0,0,0,0,-0.9593,-0.9591,-0.9493,-0.9492,-0.9491,-0.9437,-0.9436,-0.9435,-0.9432,-0.9433,-0.9434,-0.9434,-0.9373,-0.937,-0.9367,0,0,0,0,0,0,0,0,0,0,0,0,0,-0.9544,-0.959,-0.9493,-0.9483,-0.9482,-0.9437,-0.9436,-0.9435,-0.9432,-0.9433,-0.9434,-0.9435,-0.9374,-0.937,-0.9367,-0.9326,0,0,-0.9356,-0.9355,0,0,0,0,0,0,0,0,-0.9547,-0.954,-0.9485,-0.9484,-0.9482,-0.9443,-0.9448,-0.9398,-0.9432,-0.9451,-0.9434,-0.9435,-0.9394,-0.9389,-0.9376,-0.9323,-0.932,-0.9356,-0.9354,-0.9353,-0.9352,0,0,0,0,0,0,0,-0.955,-0.9543,-0.947,-0.9485,-0.9483,-0.948,-0.9475,-0.9439,-0.9417,-0.9449,-0.9449,-0.9442,-0.9394,-0.938,-0.9375,-0.9319,-0.9356,-0.9353,-0.9351,-0.935,-0.9228,-0.9227,0,0,0,0,0,0,-0.9556,-0.9546,-0.9472,-0.9469,-0.9518,-0.9478,-0.9471,-0.9454,-0.9418,-0.9413,-0.9442,-0.9443,-0.9385,-0.9379,-0.9373,-0.9321,-0.9353,-0.9349,-0.9347,-0.923,-0.9228,-0.9227,0,0,0,0,0,0,-0.9558,-0.955,-0.9474,-0.9507,-0.9497,-0.9475,-0.9456,-0.9453,-0.9439,-0.9412,-0.9408,-0.9432,-0.9385,-0.9377,-0.9338,-0.9319,-0.9348,-0.9345,-0.9231,-0.9229,-0.9228,-0.9219,0,0,0,0,0,0,-0.9561,-0.955,-0.9536,-0.9507,-0.9496,-0.9442,-0.9455,-0.9451,-0.9433,-0.9434,-0.9402,-0.9397,-0.9386,-0.9343,-0.9334,-0.9315,-0.9342,-0.9233,-0.923,-0.9228,-0.9221,-0.9218,-0.9215,0,0,0,0,0,-0.9565,-0.9535,-0.9535,-0.9526,-0.9477,-0.9441,-0.9434,-0.9423,-0.9432,-0.9416,-0.9399,-0.9398,-0.9323,-0.9339,-0.9329,-0.9309,-0.9234,-0.9231,-0.9228,-0.9223,-0.9218,-0.9215,0,0,0,0,0,0,-0.956,-0.9531,-0.9531,-0.9491,-0.9469,-0.944,-0.942,-0.9418,-0.9392,-0.9393,-0.9379,-0.9371,-0.9332,-0.9316,-0.9334,-0.9267,-0.9279,-0.9274,-0.9278,-0.9274,-0.927,-0.9274,-0.9339,0,0,0,0,0,-0.9555,-0.953,-0.9505,-0.9472,-0.9461,-0.9442,-0.9426,-0.9419,-0.9395,-0.9385,-0.9365,-0.934,-0.9311,-0.9292,-0.9263,-0.9219,-0.9211,-0.92,-0.9197,-0.9195,-0.919,-0.9165,-0.9159,-0.9218,-0.9218,-0.9218,0,0,-0.9543,-0.9524,-0.9508,-0.947,-0.9452,-0.9425,-0.9434,-0.9405,-0.9383,-0.938,-0.9341,-0.9326,-0.9297,-0.9255,-0.9235,-0.9241,-0.9172,-0.9191,-0.9189,-0.9186,-0.9162,-0.9156,-0.9151,-0.9216,-0.9217,-0.9217,0,0,-0.9507,-0.9491,-0.9461,-0.9443,-0.9416,-0.9405,-0.9397,-0.937,-0.9359,-0.9321,-0.9318,-0.9291,-0.9242,-0.9221,-0.9204,-0.916,-0.9158,-0.9152,-0.9133,-0.9109,-0.9104,-0.91,-0.9083,-0.9078,-0.9148,-0.9148,-0.9148,0,-0.9495,-0.9455,-0.9446,-0.9417,-0.9399,-0.9397,-0.9366,-0.9348,-0.9312,-0.93,-0.9307,-0.9244,-0.9224,-0.9177,-0.9167,-0.9153,-0.9143,-0.9154,-0.9106,-0.9102,-0.9098,-0.9081,-0.9075,-0.9147,-0.9147,-0.9147,-0.9147,0,-0.9441,-0.9413,-0.9393,-0.936,-0.934,-0.931,-0.9295,-0.9276,-0.9271,-0.9258,-0.9218,-0.9195,-0.9161,-0.915,-0.9144,-0.9101,-0.9105,-0.9109,-0.9121,-0.9091,-0.9076,-0.907,-0.9146,-0.9146,-0.9146,-0.9146,0,0,-0.94,-0.9364,-0.9356,-0.9341,-0.9311,-0.9288,-0.9258,-0.9226,-0.921,-0.9185,-0.9158,-0.9116,-0.912,-0.9101,-0.9093,-0.9071,-0.9037,-0.9078,-0.9077,-0.907,-0.8987,-0.8983,-0.8976,-0.9036,-0.9035,-0.9034,-0.8989,0,-0.936,-0.9307,-0.9298,-0.9251,-0.9224,-0.9221,-0.9194,-0.9172,-0.9159,-0.9133,-0.9118,-0.9088,-0.9096,-0.9084,-0.9063,-0.9046,-0.902,-0.9049,-0.9009,-0.9008,-0.9015,-0.8968,-0.8964,-0.8923,-0.8983,-0.8982,-0.8981,0,-0.9306,-0.9282,-0.9232,-0.9206,-0.9194,-0.9171,-0.9141,-0.9117,-0.9091,-0.9083,-0.9062,-0.9057,-0.9023,-0.9038,-0.899,-0.901,-0.8993,-0.8982,-0.898,-0.8975,-0.8992,-0.896,-0.891,-0.8903,-0.8972,-0.8973,-0.8973,0,-0.9279,-0.9234,-0.9199,-0.9186,-0.9155,-0.9138,-0.9124,-0.91,-0.9081,-0.9055,-0.9042,-0.9012,-0.8995,-0.8971,-0.8957,-0.8969,-0.891,-0.8924,-0.8901,-0.8901,-0.8887,-0.8888,-0.8832,-0.8879,-0.8879,-0.8879,-0.8879,0,-0.9235,-0.9204,-0.9187,-0.9165,-0.913,-0.9119,-0.9085,-0.9071,-0.9049,-0.9023,-0.9019,-0.8994,-0.8978,-0.895,-0.8939,-0.8901,-0.8893,-0.8884,-0.8881,-0.8884,-0.8885,-0.8872,-0.8874,-0.8877,-0.8878,-0.8878,-0.8878,0,-0.9199,-0.9186,-0.9147,-0.9121,-0.9114,-0.9089,-0.9066,-0.9044,-0.9031,-0.8998,-0.899,-0.8969,-0.8937,-0.8921,-0.888,-0.8872,-0.8829,-0.8828,-0.8838,-0.8836,-0.8814,-0.8816,-0.8746,-0.8735,-0.8791,-0.879,-0.879,0,-0.9171,-0.9147,-0.9119,-0.9102,-0.9088,-0.9061,-0.9043,-0.9031,-0.9012,-0.8981,-0.8962,-0.893,-0.8903,-0.8851,-0.8831,-0.88,-0.8798,-0.8776,-0.8793,-0.8796,-0.8796,-0.8797,-0.8794,-0.8772,-0.8771,-0.8771,-0.8771,0,-0.9122,-0.9117,-0.9091,-0.9063,-0.9042,-0.9019,-0.8996,-0.8982,-0.8967,-0.8945,-0.8913,-0.8892,-0.8851,-0.8819,-0.8786,-0.877,-0.8767,-0.8766,-0.8758,-0.876,-0.8766,-0.8761,-0.8828,-0.8767,-0.8767,-0.8768,-0.8768,-0.8768,-0.9088,-0.9067,-0.9044,-0.9015,-0.8997,-0.8976,-0.8954,-0.8939,-0.8913,-0.8879,-0.8874,-0.8839,-0.8813,-0.8769,-0.8752,-0.8723,-0.8728,-0.8718,-0.8715,-0.8712,-0.8711,-0.8772,-0.8718,-0.8718,-0.8718,-0.8718,-0.8718,0,-0.9037,-0.9023,-0.8997,-0.8966,-0.8943,-0.8945,-0.892,-0.89,-0.887,-0.8847,-0.8822,-0.8784,-0.8752,-0.8731,-0.8698,-0.868,-0.8677,-0.8671,-0.8672,-0.8668,-0.8709,-0.8718,-0.8674,-0.8674,-0.8674,-0.8674,-0.8674,-0.8674,-0.9008,-0.8973,-0.8965,-0.892,-0.8905,-0.8872,-0.8857,-0.8837,-0.8819,-0.8777,-0.8752,-0.8739,-0.8716,-0.8682,-0.8652,-0.8647,-0.8634,-0.8628,-0.8622,-0.866,-0.8665,-0.8669,-0.8678,-0.8626,-0.8626,-0.8583,-0.8583,-0.8582]}]]